Waarnemingen

Advertentie
Mijn weer
Chievres, België (6432): temperatuur & dauwpunt: 15.03.2019 13:00:00 - 21.03.2019 13:00:00 (CET)Chievres, België (6432): windsnelheid & windstoten: 15.03.2019 13:00:00 - 21.03.2019 13:00:00 (CET)Chievres, België (6432): windrichting: 15.03.2019 13:00:00 - 21.03.2019 13:00:00 (CET)Chievres, België (6432): luchtdruk: 15.03.2019 13:00:00 - 21.03.2019 13:00:00 (CET)Chievres, België (6432): zicht: 15.03.2019 13:00:00 - 21.03.2019 13:00:00 (CET)
Datum & Tijd tt [°C] td [°C] ff [km/u] ff [kn] fx [km/u] fx [kn] dd ppp [hPa] vv [km]
21.03.2019 13:00:00 11,9 7,9 7 4 - - NNW 1035,2 9
21.03.2019 12:00:00 11,0 7,7 4 2 14 8 N 1035,7 14
21.03.2019 11:00:00 9,6 7,3 4 2 7 4 N 1036,0 9
21.03.2019 10:00:00 6,9 6,8 4 2 - - N 1036,0 0,2
21.03.2019 09:00:00 5,5 5,5 4 2 4 2 N 1035,9 -
21.03.2019 08:00:00 3,5 3,4 4 2 4 2 N 1035,7 -
21.03.2019 07:00:00 2,5 2,4 4 2 - - N 1035,5 2,0
21.03.2019 06:00:00 3,2 3,1 4 2 0 0 N 1035,0 1,0
21.03.2019 05:00:00 3,5 3,2 4 2 0 0 N 1035,0 4,7
21.03.2019 04:00:00 3,7 3,2 4 2 - - N 1034,7 2,4
21.03.2019 03:00:00 4,5 4,2 4 2 7 4 N 1035,2 3,0
21.03.2019 02:00:00 4,5 4,1 8 4 7 4 ZZW 1035,5 3,5
21.03.2019 01:00:00 5,3 4,8 4 2 - - N 1035,4 4,9
21.03.2019 00:00:00 5,9 5,3 4 2 4 2 N 1035,5 5
20.03.2019 23:00:00 7,0 5,9 4 2 7 4 - 1035,5 9
20.03.2019 22:00:00 8,1 6,4 4 2 - - N 1035,4 13
20.03.2019 21:00:00 10,1 7,9 4 2 4 2 N 1035,2 17
20.03.2019 20:00:00 10,8 7,5 4 2 4 2 N 1035,0 20
20.03.2019 19:00:00 11,3 7,3 4 2 - - N 1034,7 20
20.03.2019 18:00:00 12,5 7,0 4 2 11 6 N 1034,4 20
20.03.2019 17:00:00 12,6 6,1 4 2 14 8 N 1034,2 20
20.03.2019 16:00:00 13,5 6,8 11 6 - - ZW 1034,2 20
20.03.2019 15:00:00 13,0 6,5 11 6 18 10 W 1034,5 20
20.03.2019 14:00:00 11,9 6,3 11 6 14 8 W 1035,0 18
20.03.2019 13:00:00 11,8 6,6 7 4 - - ZW 1035,5 20
20.03.2019 12:00:00 10,8 5,8 14 8 22 12 ZZW 1035,0 20
20.03.2019 11:00:00 10,3 5,5 14 8 22 12 ZW 1034,7 20
20.03.2019 10:00:00 9,3 4,7 14 8 - - ZW 1034,9 20
20.03.2019 09:00:00 7,8 4,6 11 6 14 8 ZZW 1034,5 20
20.03.2019 08:00:00 6,0 4,3 7 4 14 8 ZW 1034,2 18
20.03.2019 07:00:00 4,5 3,9 11 6 - - Z 1033,4 11
20.03.2019 06:00:00 4,5 4,1 9 5 11 6 ZZW 1033,2 4,9
20.03.2019 05:00:00 5,1 4,4 11 6 14 8 ZZW 1032,5 8
20.03.2019 04:00:00 6,5 5,3 11 6 - - ZW 1032,7 10
20.03.2019 03:00:00 6,5 5,2 7 4 11 6 ZW 1033,0 13
20.03.2019 02:00:00 6,2 4,9 7 4 7 4 ZW 1032,9 12
20.03.2019 01:00:00 6,8 4,8 4 2 - - N 1032,7 16
20.03.2019 00:00:00 6,8 5,2 4 2 11 6 N 1032,2 15
19.03.2019 23:00:00 7,5 4,9 7 4 11 6 ZW 1032,0 17
19.03.2019 22:00:00 7,0 4,7 7 4 - - ZW 1031,9 17
19.03.2019 21:00:00 7,6 4,9 7 4 11 6 Z 1031,2 20
19.03.2019 20:00:00 8,0 4,9 7 4 11 6 Z 1030,9 20
19.03.2019 19:00:00 8,3 4,7 7 4 - - ZZW 1030,5 20
19.03.2019 18:00:00 9,1 4,9 4 2 14 8 N 1030,0 20
19.03.2019 17:00:00 9,7 4,8 11 6 14 8 ZZW 1029,5 20
19.03.2019 16:00:00 9,8 4,5 7 4 - - ZZW 1029,5 20
19.03.2019 15:00:00 10,0 4,3 7 4 14 8 Z 1029,5 20
19.03.2019 14:00:00 10,5 4,0 7 4 18 10 ZZW 1029,7 20
19.03.2019 13:00:00 9,6 4,3 7 4 - - W 1029,7 20
19.03.2019 12:00:00 8,6 4,8 11 6 18 10 W 1029,7 20
19.03.2019 11:00:00 8,4 5,0 11 6 18 10 ZW 1029,5 20
19.03.2019 10:00:00 6,4 4,4 4 2 - - N 1029,2 11
19.03.2019 09:00:00 3,5 2,0 7 4 11 6 ZZW 1028,9 9
19.03.2019 08:00:00 1,2 0,0 4 2 7 4 N 1028,5 10
19.03.2019 07:00:00 -0,1 -0,8 4 2 - - N 1027,9 11
19.03.2019 06:00:00 -0,8 -1,2 7 4 7 4 Z 1027,7 8
19.03.2019 05:00:00 -1,0 -1,4 4 2 4 2 N 1027,4 6
19.03.2019 04:00:00 -0,2 -0,8 4 2 - - N 1027,0 6
19.03.2019 03:00:00 -0,5 -1,0 2 1 7 4 - 1026,7 7
19.03.2019 02:00:00 0,8 0,0 4 2 7 4 N 1026,5 16
19.03.2019 01:00:00 0,2 -0,2 7 4 - - ZZW 1026,2 10
19.03.2019 00:00:00 0,8 0,0 4 2 4 2 N 1026,0 14
18.03.2019 23:00:00 1,4 0,3 4 2 4 2 N 1025,7 14
18.03.2019 22:00:00 3,0 1,1 4 2 - - N 1025,5 19
18.03.2019 21:00:00 3,4 1,2 4 2 7 4 - 1024,7 6
18.03.2019 20:00:00 4,5 1,3 4 2 11 6 N 1024,2 20
18.03.2019 19:00:00 6,5 1,8 7 4 - - NNW 1023,3 20
18.03.2019 18:00:00 8,6 2,7 14 8 25 14 NNW 1022,5 20
18.03.2019 17:00:00 8,3 3,1 7 4 36 19 NNW 1021,8 19
18.03.2019 16:00:00 8,1 2,6 11 6 - - WNW 1021,7 20
18.03.2019 15:00:00 8,6 3,6 18 10 29 16 WZW 1021,3 20
18.03.2019 14:00:00 5,8 3,0 7 4 36 19 W 1021,6 20
18.03.2019 13:00:00 7,0 0,4 28 15 - - NW 1021,6 3,6
18.03.2019 12:00:00 8,2 3,7 14 8 25 14 W 1021,1 20
18.03.2019 11:00:00 7,0 4,7 11 6 18 10 W 1020,7 16
18.03.2019 10:00:00 6,4 4,5 11 6 - - W 1020,2 20
18.03.2019 09:00:00 4,5 3,3 11 6 18 10 WZW 1019,6 13
18.03.2019 08:00:00 3,1 2,3 11 6 14 8 WZW 1018,7 12
18.03.2019 07:00:00 2,1 1,4 11 6 - - WZW 1017,7 13
18.03.2019 06:00:00 2,1 1,4 11 6 22 12 WZW 1017,2 19
18.03.2019 05:00:00 2,5 1,6 15 8 22 12 ZW 1016,5 10
18.03.2019 04:00:00 2,2 1,5 14 8 - - ZW 1015,8 20
18.03.2019 03:00:00 1,7 1,0 14 8 25 14 ZW 1015,6 20
18.03.2019 02:00:00 1,6 0,7 18 10 25 14 ZW 1015,2 20
18.03.2019 01:00:00 1,9 1,1 14 8 - - ZW 1014,7 20
18.03.2019 00:00:00 2,4 1,6 14 8 22 12 ZW 1014,1 20
17.03.2019 23:00:00 2,5 1,6 14 8 29 16 ZZW 1013,8 20
17.03.2019 22:00:00 3,2 1,9 14 8 - - WZW 1013,6 13
17.03.2019 21:00:00 4,6 1,7 18 10 29 16 WNW 1012,6 10
17.03.2019 20:00:00 5,1 0,8 7 4 29 16 ZW 1011,7 20
17.03.2019 19:00:00 4,8 1,9 4 2 - - N 1011,1 20
17.03.2019 18:00:00 4,7 1,7 14 8 47 25 N 1010,2 20
17.03.2019 17:00:00 8,8 0,0 29 16 54 29 WZW 1008,5 20
17.03.2019 16:00:00 8,3 1,3 22 12 - - WZW 1007,7 20
17.03.2019 15:00:00 9,0 1,8 25 14 43 23 WZW 1007,2 20
17.03.2019 14:00:00 7,2 1,9 32 18 47 25 W 1007,1 20
17.03.2019 13:00:00 9,4 0,6 36 19 - - W 1006,2 20
17.03.2019 12:00:00 9,5 2,9 25 14 43 23 W 1005,8 20
17.03.2019 11:00:00 8,5 3,2 25 14 43 23 W 1005,2 17
17.03.2019 10:00:00 7,5 2,9 32 18 - - W 1004,5 20
17.03.2019 09:00:00 7,3 4,1 22 12 36 19 WZW 1003,6 20
17.03.2019 08:00:00 7,0 4,6 22 12 32 18 WZW 1002,7 20
17.03.2019 07:00:00 7,0 5,3 18 10 - - WZW 1001,8 20
17.03.2019 06:00:00 7,5 5,7 32 18 47 25 WZW 1001,0 19
17.03.2019 05:00:00 8,3 6,0 36 19 58 31 ZW 1000,0 4,9
17.03.2019 04:00:00 8,9 5,0 40 21 - - ZZW 999,4 19
17.03.2019 03:00:00 9,1 4,5 36 19 58 31 ZZW 1000,2 20
17.03.2019 02:00:00 9,3 4,1 40 21 61 33 ZZW 1000,7 20
17.03.2019 01:00:00 9,8 3,9 43 23 - - ZZW 1001,5 20
17.03.2019 00:00:00 10,3 5,2 29 16 65 35 ZW 1002,7 20
16.03.2019 23:00:00 10,8 5,5 36 19 50 27 ZW 1003,2 20
16.03.2019 22:00:00 10,5 6,6 32 18 - - ZZW 1003,2 20
16.03.2019 21:00:00 11,0 6,3 29 16 43 23 ZZW 1003,7 20
16.03.2019 20:00:00 11,3 6,4 29 16 50 27 ZZW 1004,5 20
16.03.2019 19:00:00 11,9 6,4 32 18 - - ZZW 1004,8 20
16.03.2019 18:00:00 11,8 6,7 32 18 47 25 ZZW 1005,2 20
16.03.2019 17:00:00 11,8 6,4 32 18 43 23 ZZW 1006,5 20
16.03.2019 16:00:00 11,6 6,5 29 16 - - ZW 1007,6 20
16.03.2019 15:00:00 11,1 6,6 32 18 58 31 ZW 1008,6 20
16.03.2019 14:00:00 10,8 6,8 32 18 58 31 ZW 1009,3 20
16.03.2019 13:00:00 10,6 5,8 40 21 - - ZW 1010,2 20
16.03.2019 12:00:00 10,6 6,5 36 19 58 31 ZW 1010,7 20
16.03.2019 11:00:00 10,3 6,6 32 18 58 31 ZW 1011,0 20
16.03.2019 10:00:00 9,8 7,1 32 18 - - ZW 1011,7 20
16.03.2019 09:00:00 9,8 7,0 36 19 54 29 ZW 1012,0 20
16.03.2019 08:00:00 9,5 8,0 36 19 50 27 ZW 1012,1 10
16.03.2019 07:00:00 9,4 8,0 32 18 - - WZW 1012,2 20
16.03.2019 06:00:00 9,8 8,2 40 21 65 35 WZW 1012,2 20
16.03.2019 05:00:00 9,8 8,7 32 18 50 27 WZW 1012,1 20
16.03.2019 04:00:00 10,0 8,9 32 18 - - WZW 1012,2 12
16.03.2019 03:00:00 10,0 9,0 32 18 47 25 WZW 1012,7 5
16.03.2019 02:00:00 9,9 9,2 25 14 43 23 WZW 1013,2 15
16.03.2019 01:00:00 9,8 9,5 28 15 - - WZW 1013,2 3,5
16.03.2019 00:00:00 10,1 9,5 29 16 43 23 WZW 1013,0 5
15.03.2019 23:00:00 10,3 9,7 29 16 43 23 WZW 1012,7 12
15.03.2019 22:00:00 10,5 9,8 29 16 - - WZW 1012,5 6
15.03.2019 21:00:00 10,5 9,8 29 16 47 25 WZW 1011,8 15
15.03.2019 20:00:00 11,0 9,5 29 16 54 29 WZW 1011,1 11
15.03.2019 19:00:00 10,7 9,8 34 18 - - WZW 1010,6 7
15.03.2019 18:00:00 10,9 9,8 36 19 58 31 WZW 1009,7 3,2
15.03.2019 17:00:00 11,1 9,8 40 21 61 33 WZW 1009,7 14
15.03.2019 16:00:00 11,1 9,8 36 19 - - WZW 1009,7 9
15.03.2019 15:00:00 11,8 9,6 32 18 50 27 WZW 1009,7 20
15.03.2019 14:00:00 11,6 9,7 32 18 54 29 WZW 1009,6 19
15.03.2019 13:00:00 12,0 9,5 40 21 - - WZW 1009,6 16

tt = temperatuur
td = dauwpunt
ff = windsnelheid
fx = windstoten
dd = windrichting
ppp = luchtdruk
vv = zicht

Weerstations in de omgeving